Stafford, VA

5:21 AM EDT on September 24, 2017 (GMT -0400)
Stafford

Weather History for KRMN - October, 2012

Change the Weather History Date:

Wednesday, October 10, 2012

  Actual Average (KNYG) Record (KNYG)
Temperature  
Mean Temperature 60 °F -  
Max Temperature 70 °F 67 °F 82 °F (2011)
Min Temperature 51 °F 48 °F 39 °F (2000)
Degree Days  
Heating Degree Days 4    
Growing Degree Days 10 (Base 50)    
Moisture  
Dew Point 45 °F    
Average Humidity 50    
Maximum Humidity 78    
Minimum Humidity 37    
Precipitation  
Precipitation 0.00 in - - ()
Sea Level Pressure  
Sea Level Pressure 30.03 in    
Wind  
Wind Speed 3 mph (WNW)    
Max Wind Speed 15 mph    
Max Gust Speed 20 mph    
Visibility 9 miles    
Events Fog    
Averages and records for this station are not official NWS values.
T = Trace of Precipitation, MM = Missing Value Source: NWS Daily Summary

Daily Weather History Graph

Daily Weather History Graph

Search for Another Location

Airport or City:

Trip Planner

Search our weather history database for the weather conditions in past years. The results will help you decide how hot, cold, wet, or windy it might be!

Date:

Astronomy

Oct. 10, 2012 Rise Set
Actual Time 7:14 AM EDT 6:38 PM EDT
Civil Twilight 6:47 AM EDT 7:04 PM EDT
Nautical Twilight 6:17 AM EDT 7:35 PM EDT
Astronomical Twilight 5:46 AM EDT 8:06 PM EDT
Moon 1:52 AM EDT (10/10) 3:36 PM EDT (10/10)
Length of Visible Light 12h 16m
Length of Day
11h 23m
Waning Crescent, 27% of the Moon is Illuminated
Oct 10
Waning Crescent
Oct 15
New
Oct 21
First Quarter
Oct 29
Full
Nov 6
Last Quarter

Hourly Weather History & Observations

Time (EDT) Temp. Dew Point Humidity Pressure Visibility Wind Dir Wind Speed Gust Speed Precip Events Conditions
12:15 AM 57.7 °F - N/A% 30.10 in 10.0 mi Calm Calm - N/A   Overcast
12:35 AM 57.4 °F - N/A% 30.09 in 10.0 mi Calm Calm - N/A   Overcast
12:55 AM 58.1 °F - N/A% 30.08 in 10.0 mi Calm Calm - N/A   Overcast
1:15 AM 56.8 °F - N/A% 30.08 in 10.0 mi Calm Calm - N/A   Overcast
1:35 AM 56.1 °F - N/A% 30.08 in 7.0 mi Calm Calm - N/A   Overcast
1:55 AM 56.3 °F - N/A% 30.08 in 10.0 mi Calm Calm - N/A   Overcast
2:15 AM 56.3 °F - N/A% 30.08 in 7.0 mi Calm Calm - N/A   Overcast
2:35 AM 57.0 °F - N/A% 30.08 in 10.0 mi Calm Calm - N/A   Overcast
2:55 AM 56.5 °F - N/A% 30.08 in 7.0 mi Calm Calm - N/A   Overcast
3:15 AM 57.2 °F - N/A% 30.07 in 10.0 mi Calm Calm - N/A   Overcast
3:35 AM 57.0 °F - N/A% 30.07 in 7.0 mi Calm Calm - N/A   Overcast
3:55 AM 57.2 °F - N/A% 30.05 in 10.0 mi Calm Calm - N/A   Overcast
4:15 AM 56.7 °F - N/A% 30.05 in 7.0 mi Calm Calm - N/A   Overcast
4:35 AM 57.0 °F - N/A% 30.05 in 10.0 mi Calm Calm - N/A   Overcast
4:55 AM 56.3 °F - N/A% 30.05 in 10.0 mi Calm Calm - N/A   Overcast
5:15 AM 55.8 °F - N/A% 30.05 in 5.0 mi Calm Calm - N/A   Haze
5:35 AM 55.4 °F - N/A% 30.04 in 10.0 mi Calm Calm - N/A   Overcast
5:55 AM 55.6 °F - N/A% 30.04 in 10.0 mi Calm Calm - N/A   Overcast
6:15 AM 55.2 °F - N/A% 30.05 in 10.0 mi Calm Calm - N/A   Overcast
6:35 AM 54.7 °F - N/A% 30.05 in 7.0 mi Calm Calm - N/A   Overcast
6:55 AM 54.1 °F - N/A% 30.05 in 0.8 mi Calm Calm - N/A   Overcast
7:15 AM 53.6 °F - N/A% 30.05 in 1.0 mi Calm Calm - N/A   Overcast
7:35 AM 52.5 °F - N/A% 30.04 in 5.0 mi Calm Calm - N/A   Haze
7:55 AM 51.8 °F - N/A% 30.05 in 0.2 mi Calm Calm - N/A Fog Fog
8:15 AM 53.6 °F - N/A% 30.05 in 0.8 mi Calm Calm - N/A   Mist
8:55 AM 57.2 °F - N/A% 30.05 in 10.0 mi Calm Calm - N/A   Clear
9:35 AM 61.2 °F 53.2 °F 75% 30.05 in 10.0 mi SSW 3.5 mph - N/A   Clear
9:55 AM 62.6 °F 51.1 °F 66% 30.04 in 10.0 mi SW 9.2 mph - N/A   Clear
10:15 AM 64.0 °F 50.9 °F 62% 30.03 in 10.0 mi SW 6.9 mph - N/A   Clear
10:35 AM 64.2 °F 47.8 °F 55% 30.03 in 10.0 mi SW 8.1 mph - N/A   Clear
10:55 AM 64.8 °F 48.4 °F 55% 30.03 in 10.0 mi SW 6.9 mph - N/A   Scattered Clouds
11:15 AM 64.4 °F 47.1 °F 53% 30.02 in 10.0 mi West 5.8 mph - N/A   Scattered Clouds
11:35 AM 66.7 °F 47.7 °F 50% 30.03 in 10.0 mi West 8.1 mph 16.1 mph N/A   Mostly Cloudy
11:55 AM 65.8 °F 46.9 °F 50% 30.02 in 10.0 mi West 6.9 mph - N/A   Mostly Cloudy
12:15 PM 65.8 °F 46.6 °F 50% 30.02 in 10.0 mi WNW 9.2 mph - N/A   Mostly Cloudy
12:55 PM 68.0 °F 45.7 °F 45% 30.00 in 10.0 mi NW 8.1 mph - N/A   Scattered Clouds
1:15 PM 68.9 °F 44.1 °F 41% 29.99 in 10.0 mi NW 9.2 mph - N/A   Scattered Clouds
1:35 PM 69.1 °F 44.8 °F 42% 29.98 in 10.0 mi NW 3.5 mph - N/A   Scattered Clouds
1:55 PM 69.6 °F 43.9 °F 39% 29.97 in 10.0 mi WNW 10.4 mph - N/A   Scattered Clouds
2:15 PM 68.2 °F 43.0 °F 40% 29.96 in 10.0 mi Calm Calm - N/A   Scattered Clouds
2:35 PM 68.5 °F 43.3 °F 40% 29.96 in 10.0 mi West 5.8 mph - N/A   Scattered Clouds
2:55 PM 69.6 °F 44.1 °F 40% 29.95 in 10.0 mi West 8.1 mph - N/A   Clear
3:15 PM 68.4 °F 43.9 °F 41% 29.95 in 10.0 mi West 5.8 mph - N/A   Clear
3:35 PM 70.2 °F 44.6 °F 40% 29.95 in 10.0 mi WSW 9.2 mph - N/A   Clear
3:55 PM 69.8 °F 43.0 °F 38% 29.94 in 10.0 mi West 4.6 mph - N/A   Clear
4:15 PM 70.2 °F 42.6 °F 37% 29.94 in 10.0 mi West 5.8 mph - N/A   Clear
4:35 PM 70.2 °F 43.0 °F 37% 29.93 in 10.0 mi WSW 4.6 mph - N/A   Clear
4:55 PM 70.3 °F 44.1 °F 39% 29.93 in 10.0 mi SW 4.6 mph - N/A   Clear
5:15 PM 69.8 °F 44.1 °F 39% 29.93 in 10.0 mi WSW 3.5 mph - N/A   Clear
5:35 PM 69.3 °F 44.8 °F 41% 29.94 in 10.0 mi WSW 4.6 mph - N/A   Clear
5:55 PM 66.4 °F 48.6 °F 53% 29.94 in 10.0 mi Calm Calm - N/A   Scattered Clouds
6:15 PM 64.9 °F 53.6 °F 67% 29.95 in 10.0 mi Calm Calm - N/A   Overcast
6:35 PM 64.4 °F 52.9 °F 66% 29.95 in 10.0 mi Calm Calm - N/A   Mostly Cloudy
6:55 PM 61.5 °F 54.5 °F 78% 29.96 in 10.0 mi Calm Calm - N/A   Mostly Cloudy
7:35 PM 64.9 °F 47.8 °F 54% 29.98 in 10.0 mi West 6.9 mph - N/A   Overcast
7:55 PM 63.7 °F 50.2 °F 61% 29.99 in 10.0 mi West 4.6 mph - N/A   Overcast
8:15 PM 63.0 °F 49.5 °F 61% 30.01 in 10.0 mi NNW 6.9 mph - N/A   Overcast
8:35 PM 64.4 °F 46.0 °F 51% 30.02 in 10.0 mi NNW 9.2 mph - N/A   Overcast
8:55 PM 62.6 °F 45.0 °F 52% 30.04 in 10.0 mi NNW 12.7 mph 19.6 mph N/A   Mostly Cloudy
9:15 PM 61.7 °F 44.1 °F 52% 30.05 in 10.0 mi NNW 15.0 mph - N/A   Mostly Cloudy
9:35 PM 60.6 °F 43.7 °F 54% 30.06 in 10.0 mi NNW 9.2 mph - N/A   Scattered Clouds
9:55 PM 59.0 °F 43.5 °F 56% 30.07 in 10.0 mi NW 13.8 mph - N/A   Clear
10:15 PM 58.5 °F 42.3 °F 55% 30.08 in 10.0 mi NNW 12.7 mph - N/A   Clear
10:35 PM 57.9 °F 39.7 °F 51% 30.10 in 10.0 mi NW 13.8 mph 19.6 mph N/A   Clear
10:55 PM 58.1 °F 36.1 °F 44% 30.11 in 10.0 mi NNW 13.8 mph - N/A   Clear
11:15 PM 57.6 °F 34.7 °F 42% 30.12 in 10.0 mi NNW 15.0 mph - N/A   Clear
11:35 PM 57.4 °F 34.3 °F 42% 30.13 in 10.0 mi North 8.1 mph - N/A   Clear
11:55 PM 56.5 °F 34.9 °F 44% 30.14 in 10.0 mi NNW 12.7 mph - N/A   Clear